Regional Weather Roundup
Issued by NWS Cleveland, OH

Home | Current Version | Previous Version | Text Only | Print | Product List | Glossary On
Versions: 1 2 3 4 5 6 7 8 9 10 11 12 13 14 15 16 17 18 19 20 21 22 23 24 25 26 27 28 29 30 31 32 33 34 35 36 37 38 39 40 41 42 43 44 45 46 47 48 49 50
000
ASUS41 KCLE 071412
RWRCLE
OHIO REGIONAL WEATHER ROUNDUP
NATIONAL WEATHER SERVICE WILMINGTON, OH
900 AM EST SUN FEB 07 2016

NOTE: "FAIR" INDICATES FEW OR NO CLOUDS BELOW 12,000 FEET WITH NO
SIGNIFICANT WEATHER AND/OR OBSTRUCTIONS TO VISIBILITY.

OHZ001>008-015>018-024>027-034-035-043-044-071500-
   NORTHWEST OHIO

CITY           SKY/WX    TMP DP  RH WIND       PRES   REMARKS
DEFIANCE       FAIR      35  26  69 S10       29.97F WCI  27
FINDLAY        FAIR      36  27  69 S10       29.99F
TOLEDO EXPRESS FAIR      33  25  72 S6        29.96F WCI  28
TOLEDO EXEC    FAIR      36  26  67 S12       29.99F
LIMA           FAIR      36  25  64 S10       30.00F
$$

OHZ009>014-019>023-028>033-038-089-071500-
   NORTHEAST OHIO

CITY           SKY/WX    TMP DP  RH WIND       PRES   REMARKS
CLE-HOPKINS    FAIR      37  23  56 S10       30.06S
CLE-LAKEFRONT  FAIR      36  23  59 SE16      30.03S
CUY CO. ARPT   PTSUNNY   36  25  64 S14       30.03F
LORAIN-ELYRIA  FAIR      34  24  67 S10       30.03S WCI  26
ASHTABULA      FAIR      31  21  66 S9        30.06S WCI  23
AKRON-CANTON   FAIR      31  22  69 S9        30.06F WCI  23
WOOSTER        CLOUDY    31  24  75 S9        30.05F WCI  23
MANSFIELD      FAIR      35  24  64 S10       30.04S WCI  27
YOUNGSTOWN     FAIR      31  20  63 S9        30.06F WCI  23
$$

OHZ042-051>053-060>062-070>072-077>081-071500-
  SOUTHWEST OHIO

CITY           SKY/WX    TMP DP  RH WIND       PRES   REMARKS
CINC-COVINGTON FAIR      36  23  59 S9        30.10F
CINC-LUNKEN    FAIR      28  28 100 CALM      30.14F
HAMILTON       FAIR      33  27  78 E3        30.11F
DAYTON         PTSUNNY   36  24  62 SW12      30.05F
WRIGHT-PAT AFB FAIR      37  26  65 S8        30.06F
DAYTON GENERAL FAIR      35  24  64 S8        30.07F WCI  29
WILMINGTON     FAIR      35  26  69 S7        30.10S WCI  29
$$

OHZ036-037-039>041-045>050-054>059-063>069-073>076-082>088-071500-
  CENTRAL AND SOUTHEAST OHIO

CITY           SKY/WX    TMP DP  RH WIND       PRES   REMARKS
COLUMBUS       FAIR      32  23  69 S5        30.10S WCI  27
OSU AIRPORT    FAIR      31  25  78 S8        30.08S WCI  23
BOLTON FIELD   SUNNY     32  27  80 SW7       30.09S WCI  26
RICKENBACK AFB FAIR      32  25  74 S8        30.09S WCI  25
NEWARK         FAIR      28  23  81 CALM      30.09F
MARION         FAIR      34  24  67 S10       30.05S WCI  26
LANCASTER      FAIR      33  25  72 SE7       30.11S WCI  27
ZANESVILLE     CLOUDY    30  22  72 S5        30.12S WCI  25
NEW PHILLY     FAIR      27  20  75 SE8       30.11F WCI  19
$$



USA.gov is the U.S. government's official web portal to all federal, state and local government web resources and services.